Regional Weather Roundup
Issued by NWS Charleston, SC

Current Version | Previous Version | Graphics & Text | Print | Product List | Glossary On
Versions: 1 2 3 4 5 6 7 8 9 10 11 12 13 14 15 16 17 18 19 20 21 22 23 24 25 26 27 28 29 30 31 32 33 34 35 36 37 38 39 40 41 42 43 44 45 46 47 48 49 50
000
ASUS42 KCHS 191427
RWRCHS

Regional Weather Roundup
National Weather Service Charleston SC
1000 AM EDT THU APR 19 2018

NOTE: "fair" indicates few or no clouds below 12,000 feet with no
significant weather and/or obstructions to visibility.

Not all stations are quality controlled. Use data with caution,
especially dewpoint observations.

SCZ027-030-031-034>040-042>050-191500-
...Southeast South Carolina...

CITY           SKY/WX    TMP DP  RH WIND       PRES   REMARKS
N Charleston   FAIR      74  62  66 W13G23    29.94R
Waterfront Prk   N/A     70  62  76 SW6G13    29.78F
Mount Pleasant FAIR      73  63  68 SW14      29.94R
Johns Island   FAIR      73  63  68 SW12G21   29.95R
Pinopolis        N/A     68  63  83 W15       29.84R
Moncks Corner  FAIR      72  57  60 W9G18     29.93S HAZE
Summerville    FAIR      72  61  68 SW9G22    29.95R
Beaufort MCAS  FAIR      74  63  68 SW16      29.96S
Beaufort Arpt  FAIR      73  63  68 SW10G17   29.96S
Hilton Head Is SUNNY     72  63  73 SW14      29.98F
Walterboro     FAIR      72  61  68 W12G18    29.96R
Allendale      PTSUNNY   72  61  68 VRB8G17   29.95R

...Southern Midlands and Pee Dee...

CITY           SKY/WX    TMP DP  RH WIND       PRES   REMARKS
Georgetown     FAIR      73  59  60 SW20      29.92R
Kingstree      FAIR      72  57  60 SW14G21   29.89S
Orangeburg     FAIR      71  59  65 W21G28    29.92S
Barnwell       PTSUNNY   72  61  68 W16       29.94R
Aiken          FAIR      72  57  60 W18G24    29.96R
Manning        FAIR      68  55  64 W16G24    29.91S
Columbia       FAIR      74  60  61 W14G25    29.88S
Sumter         FAIR      73  58  59 SW18G26   29.85S
Florence       FAIR      75  58  55 SW16G25   29.84F
Myrtle Beach   FAIR      74  59  59 W17G25    29.89S
N Myrtle Beach FAIR      74  57  55 W16G31    29.86S

$$

GAZ063-065-086>088-099>101-113>116-118-119-134>141-150-191500-
...Southeast Georgia...

CITY           SKY/WX    TMP DP  RH WIND       PRES   REMARKS
Savannah Arpt  FAIR      74  62  66 W15       29.98F
Hunter AAF     FAIR      74  62  66 W15       29.96S
Fort Stewart   FAIR      73  61  65 W17       29.98S
Statesboro     FAIR      73  59  61 W10G21    29.98F
Sylvania       FAIR      72  64  78 W8        29.98S
Claxton        FAIR      74  64  71 SW14G20   30.00R

...CSRA, Central and far Southeast Georgia...

CITY           SKY/WX    TMP DP  RH WIND       PRES   REMARKS
Thomson        PTSUNNY   71  58  62 NW13G18   30.00R
Augusta-Bush   FAIR      72  61  68 W13G21    29.94R
Augusta-Daniel FAIR      72  60  66 MISG      29.94S
Swainsboro     CLOUDY    72  63  73 W13G21    30.00S
Vidalia        PTSUNNY   72  64  78 W12       30.01S
Eastman        CLOUDY    70  56  61 W9G20     30.05R
Hazlehurst     PTSUNNY   73  61  66 W8        30.01S
Alma           FAIR      73  62  68 SW14G22   30.02F
Waycross       FAIR      76  62  62 W16G22    30.03F
Jesup          NOT AVBL
Baxley         FAIR      70  63  78 W10       30.01F
Brunswick      FAIR      72  61  68 SW13      30.03F
Saint Simons   FAIR      72  63  73 W14       30.03F

$$

SCZ027-028-034-036>038-045-046-048>050-GAZ119-141-191500-
...Lake and Supplemental Coastal Observations...

STATION/POSITION TIME  TEMP    WIND        PRES    WAVE   SWELL
                       AIR SEA DIR/SP/G            HT/PER HT/PER/DIR
                 (UTC) (F)     (DEG/KT/KT) (MB)    (FT/S) (FT/S/D)
Winyah Bay       1345   72     250/ 12     1012.0S
Lake Murray      1320   68     250/ 12/ 19 1011.2
ACE Basin NERRS  1345   71     350/  4       N/A
Fort Pulaski     1354   71 65  260/  9/ 12 1015.4F
Sapelo Island    1400   70     260/ 14     1016.0

$$

ANZ835-935-AMZ111-154-330-350-352-354-370-450-454-472-191500-
...C-MAN and Buoy Observations...

STATION/POSITION TIME  TEMP    WIND        PRES    WAVE   SWELL
                       AIR SEA DIR/SP/G            HT/PER HT/PER/DIR
                 (UTC) (F)     (DEG/KT/KT) (MB)    (FT/S) (FT/S/D)
Buoy 41004       1410   67 67  240/ 21/ 27 1014.1
Buoy 41008       1350   65 65  210/ 12/ 14 1016.0F   3/ 4   2/ 90/ 8
Folly Beach CMAN 1400   66     220/ 16/ 18 1014.6S
Capers Nearshore 1408   65 63  240/ 16/ 19 1013.7R
Fripp Nearshore  1408   65 64  230/ 12/ 17 1014.3F


STATION/POSITION TIME  TEMP    WIND        PRES    WAVE   SWELL
                       AIR SEA DIR/SP/G            HT/PER HT/PER/DIR
                 (UTC) (F)     (DEG/KT/KT) (MB)    (FT/S) (FT/S/D)
5E St. Marys GA  1400      65                N/A     2/ 4
Frying Pan Buoy  1410   67 66  220/ 23/ 27 1012.2
Buoy 41025       1410   70 69  230/ 27/ 33 1008.9
Cape Lookout NC  1400          220/ 16/ 24 1009.8F
Buoy 41002       1410   72 72  230/ 21/ 27 1016.9
Buoy 41010       1410   74 73  220/ 12/ 14 1019.8
St Augustine FL  1400   68 66  250/  8/ 11 1019.7F


$$



USA.gov is the U.S. government's official web portal to all federal, state and local government web resources and services.